Regional Weather Roundup
Issued by NWS Midland/Odessa, TX

Skip options and go directly to product.
Home | Oldest Version | Previous Version | Current Version | All | Text Only | Save Text | Print | Product List | Glossary On

Skip product version selection by date and time.   
478
ASUS44 KMAF 302010
RWRMAF
MIDLAND AREA WEATHER ROUNDUP
NATIONAL WEATHER SERVICE MIDLAND TX
200 PM CST FRI JAN 30 2015

...IN SOUTHWEST TEXAS AND SOUTHEAST NEW MEXICO...

CITY           SKY/WX    TMP DP  RH WIND       PRES   REMARKS
ALPINE         CLOUDY    47  34  60 NE9       30.28F
ANDREWS        CLOUDY    45  30  56 E13       30.29F WCI  39
ARTESIA        CLOUDY    41  32  70 SE6       30.29F WCI  37
BIG SPRING     CLOUDY    47  29  48 NE9       30.32F
CARLSBAD       CLOUDY    42  34  73 SE7       30.28F WCI  38
DRYDEN           N/A     52  38  58 E9        30.25F
FORT STOCKTON  CLOUDY    48  34  58 SE8       30.27F
GUAD PASS      FOG       33  32  96 NE28      30.19F VSB 1/2 WCI  20
HOBBS          CLOUDY    41  32  70 E8        30.29F WCI  36
MARFA          CLOUDY    48  36  61 E13       30.22F
MIDLAND AIRPK  CLOUDY    49  31  49 E12       30.29F
MIDLAND INTL   CLOUDY    48  30  49 E12       30.29F
ODESSA         CLOUDY    47  30  51 E9        30.29F
PECOS          CLOUDY    47  33  58 E8        30.29F
PRESIDIO       CLOUDY    60  40  47 NE12G18   30.16F
SEMINOLE       PTSUNNY   46  29  52 E12       30.29F
SNYDER         CLOUDY   N/A N/A N/A E10       30.34F
WINK           CLOUDY    47  28  47 SE5       30.27F
$$
...OTHER STATIONS IN TEXAS...

CITY           SKY/WX    TMP DP  RH WIND       PRES   REMARKS
ABILENE        CLOUDY    49  30  48 E7        30.35F
AMARILLO       CLOUDY    39  27  62 S10       30.32F WCI  32
AUSTIN         PTSUNNY   56  39  53 NE9       30.34F
BROWNSVILLE    PTSUNNY   71  62  73 NE16      30.24F
CORPUS CHRISTI PTSUNNY   65  50  58 E20       30.28F
DALLAS FTW     PTSUNNY   55  30  38 NE8       30.39F
DEL RIO        CLOUDY    58  36  43 S7        30.26F
EL PASO        LGT RAIN  46  37  71 E13       30.14F
HOUSTON INT    PTSUNNY   61  37  41 VRB3      30.34F
LUBBOCK        CLOUDY    43  28  55 E13       30.30F WCI  36
SAN ANGELO     PTSUNNY   52  33  48 E10       30.31F
SAN ANTONIO    CLOUDY    61  40  45 E12       30.31F
WACO           PTSUNNY   53  34  48 NE5       30.37F
WICHITA FALLS  NOT AVBL
$$
...OTHER LOCATIONS IN NEW MEXICO...

CITY           SKY/WX    TMP DP  RH WIND       PRES   REMARKS
ALAMAGORDO     CLOUDY    45  41  87 N6        30.16F
ALBUQUERQUE    FOG       34  33  96 N10       30.17F VSB 1/2 WCI  26
CANNON AFB     LGT RAIN  37  32  83 SE8       30.28F WCI  31
CLOVIS         CLOUDY    37  28  70 S9        30.29F WCI  31
HOLLOMAN AFB   DRIZZLE   45  41  87 N5        30.14F
ROSWELL        CLOUDY    41  31  67 SE9       30.29F WCI  35
RUIDOSO        CLOUDY    32  30  93 SE14G21   30.20F FOG     WCI  22
SANTA FE       FLURRIES  31  27  85 S9        30.19F WCI  23
TRUTH OR CONSE LGT RAIN  39  38  96 N6        30.14F WCI  35
TUCUMCARI      LGT RAIN  35  33  92 S3        30.28F FOG
$$

USA.gov is the U.S. government's official web portal to all federal, state and local government web resources and services.